TimeCST,TemperatureF,Dew PointF,Humidity,Sea Level PressureIn,VisibilityMPH,Wind Direction,Wind SpeedMPH,Gust SpeedMPH,PrecipitationIn,Events,Conditions,WindDirDegrees,DateUTC
12:13 AM,6.8,-2.2,67,30.19,10.0,Calm,Calm,-,N/A,,Overcast,0,2013-01-23 06:13:00
12:33 AM,6.8,-0.4,72,30.18,10.0,Calm,Calm,-,N/A,,Overcast,0,2013-01-23 06:33:00
12:53 AM,6.8,-0.4,72,30.17,10.0,Calm,Calm,-,N/A,,Overcast,0,2013-01-23 06:53:00
1:13 AM,6.8,-0.4,72,30.17,10.0,Calm,Calm,-,N/A,,Overcast,0,2013-01-23 07:13:00
1:33 AM,6.8,-0.4,72,30.17,10.0,Calm,Calm,-,N/A,,Overcast,0,2013-01-23 07:33:00
1:53 AM,6.8,1.4,79,30.16,10.0,Calm,Calm,-,N/A,,Overcast,0,2013-01-23 07:53:00
2:13 AM,6.8,1.4,79,30.16,10.0,Calm,Calm,-,N/A,,Overcast,0,2013-01-23 08:13:00
2:33 AM,6.8,1.4,79,30.16,10.0,Calm,Calm,-,N/A,,Overcast,0,2013-01-23 08:33:00
2:53 AM,8.6,1.4,73,30.15,10.0,Calm,Calm,-,N/A,Snow,Light Snow,0,2013-01-23 08:53:00
3:13 AM,8.6,3.2,79,30.15,10.0,Calm,Calm,-,N/A,Snow,Light Snow,0,2013-01-23 09:13:00
3:33 AM,8.6,3.2,79,30.15,7.0,Calm,Calm,-,N/A,Snow,Light Snow,0,2013-01-23 09:33:00
3:53 AM,8.6,3.2,79,30.14,7.0,Calm,Calm,-,N/A,Snow,Light Snow,0,2013-01-23 09:53:00
4:13 AM,8.6,5.0,85,30.13,10.0,Calm,Calm,-,N/A,Snow,Light Snow,0,2013-01-23 10:13:00
4:33 AM,8.6,6.8,92,30.12,10.0,Calm,Calm,-,N/A,,Overcast,0,2013-01-23 10:33:00
4:53 AM,8.6,6.8,92,30.12,10.0,Calm,Calm,-,N/A,Snow,Light Snow,0,2013-01-23 10:53:00
5:13 AM,8.6,6.8,92,30.12,10.0,Calm,Calm,-,N/A,,Overcast,0,2013-01-23 11:13:00
5:33 AM,8.6,6.8,92,30.12,10.0,Calm,Calm,-,N/A,,Overcast,0,2013-01-23 11:33:00
5:53 AM,8.6,6.8,92,30.13,10.0,Calm,Calm,-,N/A,,Overcast,0,2013-01-23 11:53:00
6:13 AM,6.8,5.0,92,30.13,10.0,Calm,Calm,-,N/A,,Scattered Clouds,0,2013-01-23 12:13:00
6:32 AM,6.8,5.0,92,30.14,10.0,Calm,Calm,-,N/A,,Unknown,0,2013-01-23 12:32:00
6:53 AM,6.8,3.2,85,30.14,10.0,Calm,Calm,-,N/A,,Clear,0,2013-01-23 12:53:00
7:13 AM,6.8,5.0,92,30.14,10.0,West,3.5,-,N/A,,Mostly Cloudy,270,2013-01-23 13:13:00
7:33 AM,8.6,6.8,92,30.14,10.0,West,3.5,-,N/A,,Overcast,280,2013-01-23 13:33:00
7:53 AM,8.6,6.8,92,30.14,10.0,West,4.6,-,N/A,,Overcast,280,2013-01-23 13:53:00
8:13 AM,8.6,6.8,92,30.14,10.0,West,3.5,-,N/A,,Overcast,280,2013-01-23 14:13:00
8:33 AM,8.6,6.8,92,30.14,10.0,WNW,6.9,-,N/A,,Overcast,290,2013-01-23 14:33:00
8:53 AM,8.6,6.8,92,30.15,10.0,WNW,9.2,-,N/A,,Overcast,290,2013-01-23 14:53:00
9:12 AM,8.6,6.8,92,30.16,10.0,WNW,9.2,-,N/A,,Scattered Clouds,300,2013-01-23 15:12:00
9:33 AM,10.4,6.8,85,30.17,10.0,WNW,10.4,-,N/A,,Mostly Cloudy,300,2013-01-23 15:33:00
9:53 AM,10.4,6.8,85,30.18,10.0,NW,11.5,17.3,N/A,,Scattered Clouds,310,2013-01-23 15:53:00
10:12 AM,10.4,6.8,85,30.18,10.0,WNW,11.5,17.3,N/A,,Clear,300,2013-01-23 16:12:00
10:33 AM,10.4,6.8,85,30.19,10.0,NW,12.7,17.3,N/A,,Clear,310,2013-01-23 16:33:00
10:53 AM,12.2,6.8,79,30.20,10.0,NW,13.8,24.2,N/A,,Clear,310,2013-01-23 16:53:00
11:12 AM,12.2,5.0,73,30.21,10.0,NW,17.3,23.0,N/A,,Clear,310,2013-01-23 17:12:00
11:33 AM,10.4,3.2,73,30.21,10.0,NW,19.6,27.6,N/A,,Clear,310,2013-01-23 17:33:00
11:53 AM,10.4,3.2,73,30.22,10.0,NW,19.6,27.6,N/A,,Clear,310,2013-01-23 17:53:00
12:12 PM,10.4,1.4,67,30.23,10.0,NW,17.3,29.9,N/A,,Clear,310,2013-01-23 18:12:00
12:33 PM,10.4,-0.4,62,30.22,10.0,NW,19.6,29.9,N/A,,Clear,310,2013-01-23 18:33:00
12:53 PM,8.6,-2.2,62,30.23,7.0,NNW,23.0,31.1,N/A,,Clear,330,2013-01-23 18:53:00
1:13 PM,8.6,-2.2,62,30.24,10.0,NW,17.3,34.5,N/A,,Clear,320,2013-01-23 19:13:00
1:33 PM,8.6,-2.2,62,30.25,10.0,NW,21.9,28.8,N/A,,Clear,310,2013-01-23 19:33:00
1:53 PM,6.8,-5.8,56,30.26,7.0,NW,21.9,36.8,N/A,,Clear,310,2013-01-23 19:53:00
2:13 PM,6.8,-5.8,56,30.27,7.0,NW,21.9,36.8,N/A,,Clear,320,2013-01-23 20:13:00
2:33 PM,6.8,-5.8,56,30.29,10.0,NW,20.7,29.9,N/A,,Clear,320,2013-01-23 20:33:00
2:53 PM,5.0,-7.6,56,30.30,10.0,NW,21.9,29.9,N/A,,Clear,320,2013-01-23 20:53:00
3:13 PM,3.2,-9.4,56,30.31,10.0,NW,25.3,32.2,N/A,,Clear,320,2013-01-23 21:13:00
3:33 PM,3.2,-9.4,56,30.34,10.0,NW,19.6,28.8,N/A,,Clear,320,2013-01-23 21:33:00
3:53 PM,1.4,-11.2,56,30.35,10.0,NW,17.3,26.5,N/A,,Clear,320,2013-01-23 21:53:00
4:13 PM,1.4,-11.2,56,30.36,10.0,NW,16.1,27.6,N/A,,Clear,320,2013-01-23 22:13:00
4:33 PM,1.4,-11.2,56,30.38,10.0,NW,19.6,24.2,N/A,,Clear,320,2013-01-23 22:33:00
4:53 PM,-0.4,-11.2,60,30.40,10.0,NW,12.7,-,N/A,,Clear,310,2013-01-23 22:53:00
5:13 PM,-0.4,-11.2,60,30.42,10.0,NW,12.7,18.4,N/A,,Clear,310,2013-01-23 23:13:00
5:33 PM,-0.4,-11.2,60,30.43,10.0,NW,13.8,21.9,N/A,,Clear,320,2013-01-23 23:33:00
5:53 PM,-0.4,-13.0,55,30.45,10.0,NW,11.5,-,N/A,,Clear,320,2013-01-23 23:53:00
6:13 PM,-2.2,-13.0,60,30.44,10.0,NW,11.5,18.4,N/A,,Clear,310,2013-01-24 00:13:00
6:33 PM,-2.2,-13.0,60,30.46,10.0,NW,11.5,19.6,N/A,,Clear,320,2013-01-24 00:33:00
6:53 PM,-2.2,-14.8,55,30.46,10.0,NNW,12.7,-,N/A,,Clear,330,2013-01-24 00:53:00
7:12 PM,-2.2,-14.8,55,30.47,10.0,NNW,12.7,18.4,N/A,,Clear,330,2013-01-24 01:12:00
7:33 PM,-2.2,-14.8,55,30.49,10.0,NW,10.4,-,N/A,,Clear,320,2013-01-24 01:33:00
7:53 PM,-4.0,-14.8,60,30.49,10.0,NNW,10.4,-,N/A,,Clear,330,2013-01-24 01:53:00
8:12 PM,-4.0,-14.8,60,30.50,10.0,NNW,12.7,-,N/A,,Clear,330,2013-01-24 02:12:00
8:33 PM,-5.8,-14.8,65,30.51,10.0,NNW,9.2,-,N/A,,Clear,330,2013-01-24 02:33:00
9:13 PM,-5.8,-14.8,65,30.52,10.0,NNW,12.7,-,N/A,,Clear,340,2013-01-24 03:13:00
9:33 PM,-5.8,-14.8,65,30.53,10.0,NNW,9.2,-,N/A,,Clear,340,2013-01-24 03:33:00
9:53 PM,-7.6,-16.6,65,30.54,10.0,North,6.9,-,N/A,,Clear,350,2013-01-24 03:53:00
10:13 PM,-7.6,-16.6,65,30.56,10.0,NNW,6.9,-,N/A,,Clear,330,2013-01-24 04:13:00
10:33 PM,-7.6,-16.6,65,30.56,10.0,North,5.8,-,N/A,,Clear,360,2013-01-24 04:33:00
10:52 PM,-7.6,-16.6,65,30.57,10.0,North,6.9,-,N/A,,Clear,10,2013-01-24 04:52:00
11:13 PM,-5.8,-16.6,60,30.58,10.0,North,8.1,-,N/A,,Clear,10,2013-01-24 05:13:00
11:33 PM,-7.6,-16.6,65,30.58,10.0,NNE,10.4,-,N/A,,Clear,20,2013-01-24 05:33:00
11:52 PM,-7.6,-16.6,65,30.59,10.0,NNE,8.1,-,N/A,,Clear,20,2013-01-24 05:52:00